User: anonymous   Login
Location: Aalen
(48.8330°N, 10.1000°E)
Time: 18:36:22
(UTC+02:00)
Language:

M-CUBED/EXP-1 PRIME - Orbit

View from above orbital plane
View from above orbital plane
View from above satellite
View from above satellite

Ground track
Ground track

The orbit data is extracted from the following two-line orbital elements,

1 37855U 11061F   21267.88420446  .00003596  00000-0  17677-3 0  9995
2 37855 101.7196 242.9207 0165423 134.7412 226.7404 15.08155879541165
Epoch (UTC): 24 September 2021 21:13:15
Eccentricity: 0.0165423
inclination: 101.7196°
perigee height: 427 km
apogee height: 656 km
right ascension of ascending node: 242.9207°
argument of perigee: 134.7412°
revolutions per day: 15.08155879
mean anomaly at epoch: 226.7404°
orbit number at epoch: 54116

The dashed part of the orbit path shows where the satellite is in the earth's shadow,  

DLR